Location: Caltech
(34.1382°N, 118.1253°W)
Time: 00:29:02
(UTC-07:00)

JAS-2 - Visible Passes

Search period start: 23 August 2014 00:00
Search period end: 02 September 2014 00:00
Orbit: 799 x 1322 km, 98.5° (Epoch: 22 August)

Date Brightness Start Highest point End Pass type
(mag) Time Alt. Az. Time Alt. Az. Time Alt. Az.
23 Aug 12.2 05:44:20 10° ENE 05:46:55 14° E 05:49:32 10° ESE visible
25 Aug 12.3 05:39:45 10° ENE 05:41:57 13° E 05:44:11 10° ESE visible
27 Aug 12.4 05:35:15 10° ENE 05:36:59 11° E 05:38:44 10° ESE visible
29 Aug 12.6 05:30:59 10° E 05:32:01 11° E 05:33:04 10° ESE visible
01 Sep 12.8 19:55:24 10° WSW 19:56:48 11° W 19:58:11 10° W visible
